Concordia, KS

5:26 AM CDT on August 26, 2019 (GMT -0500)
Blosser Municipal

Weather History for KCNK - June, 2019

Change the Weather History Date:

Tuesday, June 11, 2019

  Actual Average Record
Temperature  
Mean Temperature 70 °F 72 °F  
Max Temperature 81 °F 83 °F 105 °F (1918)
Min Temperature 59 °F 61 °F 43 °F (1903)
Degree Days  
Heating Degree Days 0 1  
Month to date heating degree days 0 11  
Since 1 June heating degree days 0 11  
Since 1 July heating degree days 5821 5406  
Cooling Degree Days 5 8  
Month to date cooling degree days 101 68  
Year to date cooling degree days 201 157  
Since 1 June cooling degree days 101 68  
Growing Degree Days 20 (Base 50)    
Moisture  
Dew Point 52 °F    
Average Humidity 54    
Maximum Humidity 78    
Minimum Humidity 30    
Precipitation  
Precipitation 0.40 in 0.13 in 1.84 in (2015)
Month to date precipitation 0.84 1.47  
Year to date precipitation 15.43 11.46  
Snow  
Snow 0.00 in 0.00 in T in (1927)
Month to date snowfall 0.0 0.0  
Year to date snowfall 32.3 13.7  
Since 1 July snowfall 48.2 20.2  
Snow Depth 0.00 in    
Sea Level Pressure  
Sea Level Pressure 30.05 in    
Wind  
Wind Speed 13 mph (South)    
Max Wind Speed 24 mph    
Max Gust Speed 31 mph    
Visibility 9 miles    
Events Rain , Thunderstorm    
T = Trace of Precipitation, MM = Missing Value Source: NWS Daily Summary

Daily Weather History Graph

Daily Weather History Graph

Search for Another Location

Airport or City:

Astronomy

Jun. 11, 2019 Rise Set
Actual Time 6:02 AM CDT 8:57 PM CDT
Civil Twilight 5:30 AM CDT 9:30 PM CDT
Nautical Twilight 4:49 AM CDT 10:11 PM CDT
Astronomical Twilight 4:02 AM CDT 10:58 PM CDT
Moon 3:00 PM CDT (6/11) 2:45 AM CDT (6/11)
Length of Visible Light 15h 59m
Length of Day
14h 55m
Waxing Gibbous, 66% of the Moon is Illuminated
Jun 11
Waxing Gibbous
Jun 17
Full
Jun 25
Last Quarter
Jul 2
New
Jul 9
First Quarter

Hourly Weather History & Observations

Time (CDT) Temp. Dew Point Humidity Pressure Visibility Wind Dir Wind Speed Gust Speed Precip Events Conditions
12:55 AM 62.1 °F 44.1 °F 52% 30.20 in 10.0 mi South 11.5 mph - N/A   Clear
1:55 AM 62.1 °F 44.1 °F 52% 30.18 in 10.0 mi South 11.5 mph - N/A   Clear
2:55 AM 62.1 °F 44.1 °F 52% 30.17 in 10.0 mi South 13.8 mph - N/A   Clear
3:55 AM 59.0 °F 45.0 °F 60% 30.14 in 10.0 mi South 10.4 mph - N/A   Clear
4:55 AM 61.0 °F 45.0 °F 56% 30.13 in 10.0 mi South 15.0 mph - N/A   Clear
5:55 AM 59.0 °F 46.0 °F 62% 30.12 in 10.0 mi South 11.5 mph - N/A   Clear
6:55 AM 61.0 °F 46.9 °F 60% 30.13 in 10.0 mi South 9.2 mph - N/A   Clear
7:55 AM 64.9 °F 46.9 °F 52% 30.13 in 10.0 mi South 10.4 mph - N/A   Clear
8:55 AM 69.1 °F 48.0 °F 47% 30.13 in 10.0 mi South 13.8 mph 25.3 mph N/A   Clear
9:55 AM 73.0 °F 46.9 °F 39% 30.12 in 10.0 mi South 18.4 mph 26.5 mph N/A   Clear
10:55 AM 75.0 °F 46.0 °F 36% 30.09 in 10.0 mi South 19.6 mph 29.9 mph N/A   Clear
11:55 AM 75.0 °F 46.0 °F 36% 30.06 in 10.0 mi South 21.9 mph 31.1 mph N/A   Clear
12:55 PM 77.0 °F 48.0 °F 36% 30.04 in 10.0 mi South 18.4 mph - N/A   Clear
1:55 PM 80.1 °F 46.9 °F 31% 30.01 in 10.0 mi South 18.4 mph 27.6 mph N/A   Clear
2:55 PM 80.1 °F 48.9 °F 34% 29.99 in 10.0 mi South 16.1 mph 25.3 mph N/A   Partly Cloudy
3:55 PM 78.1 °F 48.9 °F 36% 29.99 in 10.0 mi North - - N/A   Partly Cloudy
4:26 PM 75.9 °F 50.0 °F 40% 30.02 in 10.0 mi North - - N/A Thunderstorm Overcast
4:46 PM 69.1 °F 55.9 °F 63% 30.01 in 2.5 mi South 9.2 mph 21.9 mph 0.05 in Rain , Thunderstorm Heavy Thunderstorms and Rain
4:55 PM 66.0 °F 57.9 °F 75% 29.99 in 3.0 mi South 5.8 mph 18.4 mph 0.16 in Rain , Thunderstorm Thunderstorms and Rain
5:15 PM 66.0 °F 60.1 °F 81% 30.02 in 10.0 mi North - - 0.01 in Thunderstorm Mostly Cloudy
5:25 PM 66.9 °F 60.1 °F 79% 30.01 in 10.0 mi North - - 0.01 in Rain Light Rain
5:55 PM 68.0 °F 61.0 °F 78% 29.98 in 10.0 mi North - - 0.01 in   Overcast
6:55 PM 69.1 °F 60.1 °F 73% 29.97 in 10.0 mi East 8.1 mph - N/A   Mostly Cloudy
7:55 PM 66.9 °F 57.9 °F 73% 29.96 in 10.0 mi North - - N/A   Clear
8:55 PM 66.0 °F 57.9 °F 75% 29.97 in 10.0 mi North - - N/A   Mostly Cloudy
9:25 PM 64.9 °F 57.9 °F 78% 30.00 in 10.0 mi ENE 5.8 mph - N/A Thunderstorm Thunderstorm
9:40 PM 64.0 °F 57.9 °F 80% 29.99 in 10.0 mi ESE 5.8 mph - N/A Thunderstorm Mostly Cloudy
9:55 PM 64.0 °F 57.9 °F 80% 29.96 in 10.0 mi East 4.6 mph - N/A   Scattered Clouds
10:08 PM 64.0 °F 57.9 °F 80% 30.02 in 10.0 mi NNE 5.8 mph - N/A Thunderstorm Mostly Cloudy
10:29 PM 64.9 °F 57.9 °F 78% 30.02 in 10.0 mi SE 8.1 mph - N/A   Overcast
10:42 PM 64.0 °F 57.9 °F 80% 30.00 in 10.0 mi SSE 10.4 mph - N/A Thunderstorm Overcast
10:55 PM 64.9 °F 57.9 °F 78% 30.02 in 10.0 mi WNW 13.8 mph - 0.00 in Rain , Thunderstorm Light Thunderstorms and Rain
11:05 PM 63.0 °F 59.0 °F 87% 30.03 in 1.8 mi SSW 10.4 mph 21.9 mph 0.14 in Rain , Thunderstorm Heavy Thunderstorms and Rain
11:12 PM 62.1 °F 57.0 °F 84% 30.03 in 3.0 mi SSW 8.1 mph - 0.23 in Rain , Thunderstorm Light Thunderstorms and Rain
11:31 PM 62.1 °F 57.0 °F 84% 30.02 in 10.0 mi SSW 5.8 mph - 0.23 in Thunderstorm Scattered Clouds
11:51 PM 62.6 °F 55.4 °F 77% 30.03 in 10.0 mi WSW 8.1 mph - 0.23 in   Mostly Cloudy
11:55 PM 62.1 °F 55.9 °F 80% 30.00 in 10.0 mi WSW 9.2 mph - 0.23 in Rain Light Rain